Regional Weather Roundup
Issued by NWS

Home | Current Version | Previous Version | Graphics & Text | Print | Product List | Glossary On
Versions: 1 2 3 4 5 6 7 8 9 10 11 12 13 14 15 16 17 18 19 20 21 22 23 24 25 26 27 28 29 30 31 32 33 34 35 36 37 38 39 40 41 42 43 44 45 46 47 48 49 50
000
ASUS43 KMKX 282107
RWRWI

WISCONSIN REGIONAL WEATHER ROUNDUP
NATIONAL WEATHER SERVICE MILWAUKEE/SULLIVAN WI
400 PM CDT THU MAY 28 2015

NOTE: "FAIR" INDICATES FEW OR NO CLOUDS BELOW 12,000 FEET WITH NO
SIGNIFICANT WEATHER AND/OR OBSTRUCTIONS TO VISIBILITY.

WIZ001-002-006>008-014>016-023>028-282200-
NORTHWEST WISCONSIN

CITY           SKY/WX    TMP DP  RH WIND       PRES   REMARKS
SUPERIOR ARPT  CLOUDY    44  42  89 E12       30.05F
ASHLAND        MOSUNNY   62  51  67 N10       30.02F
HAYWARD        MOSUNNY   84  47  27 SW20G30   30.01F HX  82
SIREN          MOSUNNY   83  49  30 S16G24    30.00S HX  81
CUMBERLAND     PTSUNNY   79  50  36 S17G23    30.03S
RICE LAKE      SUNNY     83  46  27 S14G24    30.04F HX  81
CHETEK         MOSUNNY   82  56  40 S15G23    30.04S HX  81
LADYSMITH      SUNNY     82  51  33 S15G22    30.06F HX  81
EAU CLAIRE     NOT AVBL
MENOMONIE      MOSUNNY   82  55  38 S16G22    30.04S HX  81
NEW RICHMOND   SUNNY     81  50  33 S20G29    30.02F HX  80
OSCEOLA        MOSUNNY   84  52  33 S15G24    30.03F HX  82
$$

WIZ003>005-009-010-017-018-282200-
NORTH CENTRAL WISCONSIN

CITY           SKY/WX    TMP DP  RH WIND       PRES   REMARKS
MANITOWISH WTR PTSUNNY   81  55  40 SW10G21   30.04F HX  80
ARBOR VITAE    MOSUNNY   80  52  38 SW14      30.06S HX  80
WOODRUFF       MOSUNNY   80  52  38 SW14      30.06S HX  80
RHINELANDER    MOSUNNY   82  52  35 SW15G24   30.07F HX  81
EAGLE RIVER    MOSUNNY   81  46  29 S6G16     30.06S HX  80
LAND O LAKES   PTSUNNY   80  49  33 SW7G18    30.06F
PHILLIPS       MOSUNNY   81  54  39 S10G17    30.04F HX  81
TOMAHAWK       MOSUNNY   81  53  37 S5        30.07F HX  80
MEDFORD        SUNNY     79  57  47 S12       30.08F HX  80
MERRILL        CLOUDY    77  59  53 W10       30.09S
$$

WIZ029-030-035-036-043>047-282200-
CENTRAL WISCONSIN

CITY           SKY/WX    TMP DP  RH WIND       PRES   REMARKS
WAUSAU         MOSUNNY   82  50  32 S14G23    30.06F HX  81
MOSINEE        NOT AVBL
MARSHFIELD     MOSUNNY   82  55  39 S14       30.08S HX  81
STEVENS POINT  PTSUNNY   80  51  36 S14       30.09F HX  80
WAUPACA        MOSUNNY   85  54  34 S12       30.10S HX  83
WAUTOMA        NOT AVBL
WISC RAPIDS    MOSUNNY   84  52  33 SW14G24   30.09F HX  82
CAMP DOUGLAS   NOT AVBL
$$

WIZ011>013-019>022-031-037>040-048>050-282200-
NORTHEAST WISCONSIN

CITY           SKY/WX    TMP DP  RH WIND       PRES   REMARKS
ANTIGO         MOSUNNY   78  59  53 S10       30.10S
SHAWANO        MOSUNNY   82  59  45 S5        30.09S HX  82
OCONTO         MOSUNNY   78  63  60 E8        30.09F HX  80
STURGEON BAY   MOSUNNY   73  61  64 S15       30.14F
GREEN BAY      MOSUNNY   83  60  45 S12       30.10F HX  83
MANITOWOC      NOT AVBL
APPLETON       PTSUNNY   81  55  41 S14G22    30.11F HX  80
CLINTONVILLE   PTSUNNY   84  54  34 S12       30.08F HX  83
OSHKOSH        MOSUNNY   80  60  50 S14       30.11F HX  81
$$

WIZ032>034-041-042-053>061-282200-
SOUTHWEST WISCONSIN

CITY           SKY/WX    TMP DP  RH WIND       PRES   REMARKS
LA CROSSE      PTSUNNY   85  55  35 S16G24    30.06F HX  83
SPARTA         PTSUNNY   81  54  38 S9G20     30.09F HX  81
VIROQUA        PTSUNNY   80  52  38 S12G20    30.11F
BOSCOBEL       MOSUNNY   81  54  39 S10       30.10F HX  81
PRAIRIE DU CHI MOSUNNY   80  50  36 SE8       30.09S
PLATTEVILLE    MOSUNNY   81  53  38 S17       30.12F HX  81
$$

WIZ056-057-062-063-064-067-068-282200-
SOUTH CENTRAL WISCONSIN

CITY           SKY/WX    TMP DP  RH WIND       PRES   REMARKS
REEDSBURG      MOSUNNY   80  57  44 S13G18    30.11S HX  80
BARABOO/DELLS  MOSUNNY   78  55  44 S14       30.12S
LONE ROCK      NOT AVBL
MINERAL POINT  MOSUNNY   79  52  38 S12       30.13F
MADISON        PTSUNNY   82  54  37 S16       30.11F HX  81
MIDDLETON      MOSUNNY   83  49  30 S14       30.13F HX  82
WATERTOWN      MOSUNNY  N/A N/A N/A S10       30.13S
MONROE         MOSUNNY   79  52  38 S15       30.13F
JANESVILLE     MOSUNNY   82  50  32 SE10      30.12F HX  81
$$

WIZ051-052-058>065-066-070>072-282200-
SOUTHEAST WISCONSIN

CITY           SKY/WX    TMP DP  RH WIND       PRES   REMARKS
MILWAUKEE      PTSUNNY   76  57  51 SE13      30.15F
WAUKESHA       MOSUNNY   79  57  47 SE16      30.15F HX  80
MILWAUKEE/TIMM SUNNY     81  52  36 S13G18    30.15F HX  80
RACINE         MOSUNNY   75  55  49 S13       30.18F
BURLINGTON     MOSUNNY   78  56  47 E8G16     30.15F
KENOSHA        SUNNY     78  54  43 SE14      30.16F
FOND DU LAC    MOSUNNY   82  60  47 S14G21    30.11F HX  82
SHEBOYGAN      SUNNY     75  58  55 S17G26    30.14S
WEST BEND      MOSUNNY   81  57  44 SE9G17    30.14S HX  81
JUNEAU         MOSUNNY   80  57  45 S15       30.14S HX  80
$$

LSZ147-162-282200-
LAKE SUPERIOR

STATION/POSITION TIME  TEMP    WIND        PRES    WAVE
                       AIR SEA DIR/SP/G            HT/PER
                 (UTC) (F)     (DEG/KT/KT) (MB)    (FT/S)
W MID LAKE BUOY  1950   38 37   30/ 14/ 17   N/A     3/ 4
DEVILS ISLAND    2000   40      40/ 13/ 16   N/A
PORT WING        2000   41      20/ 18/ 21   N/A
SAXON HARBOR     2040   46      10/  4/  6   N/A
$$

LMZ867-665-643>646-282200-
LAKE MICHIGAN

STATION/POSITION TIME  TEMP    WIND        PRES    WAVE
                       AIR SEA DIR/SP/G            HT/PER
                 (UTC) (F)     (DEG/KT/KT) (MB)    (FT/S)
CHAMBERS ISLAND  2000   60     340/  3/  3   N/A
N MID LAKE BUOY  1950   41 37  150/  6/  6   N/A     1
NORTHPORT PIER   2000   49     140/ 10/ 13   N/A
SISTER BAY       2003   77     140/ 12/ 16   N/A
ALGOMA LAKESHORE 1838          170/  2/  5   N/A
KEWAUNEE LAKESHO 2000   50     170/ 13/ 14   N/A
SHEBOYGAN LAKESH 2000   56     170/ 22/ 24   N/A
PORT WASHINGTON  2000   62     200/  5/ 10   N/A
ATWATER BUOY     2000   56     160/ 12/ 16   N/A
MILWAUKEE LAKESH 2000   56     140/ 16/ 18   N/A
S MID LAKE BUOY  1950   57 39  190/  6/  6   N/A     0
KENOSHA   LAKESH 2000   60     170/ 10/ 11   N/A
$$

TC  - TEMPERATURE IN CELSIUS
VSB - VISIBILITY IN STATUTE MILES
WCI - WIND CHILL INDEX
HX  - HEAT INDEX



USA.gov is the U.S. government's official web portal to all federal, state and local government web resources and services.